Location: Devore Heights
(34.2372°N, 117.4156°W)
Time: 01:49:50
(UTC+00:00)

A-11 Canister half - Pass Details

Date: 16 September 2024
Orbit: 1515 x 1684 km, 47.2° (Epoch: 06 October)

Event Time Altitude Azimuth Distance (km) Brightness Sun altitude
Rises 06:26:49 0° 300° (WNW) 4,671 12.1 -49.0°
Reaches altitude 10° 06:30:07 10° 307° (NW) 3,680 11.4 -49.4°
Enters shadow 06:35:38 34° 335° (NNW) 2,305 10.1 -49.9°
